User: anonymous   Login
Location: Unspecified
(0.0000°N, 0.0000°E)
Time: 07:40:07
(UTC+00:00)
Language:

Tiangong 1 - Orbit

View from above orbital plane
View from above orbital plane
View from above satellite
View from above satellite

Ground track
Ground track

The orbit data is extracted from the following two-line orbital elements,

1 37820U 11053A   17058.71229544  .00028085  00000-0  19759-3 0  9992
2 37820  42.7620 147.7785 0017658  18.8377 113.2540 15.73333019310693
Epoch (UTC): 27 February 2017 17:05:42
Eccentricity: 0.0017658
inclination: 42.7620°
perigee height: 337 km
apogee height: 361 km
right ascension of ascending node: 147.7785°
argument of perigee: 18.8377°
revolutions per day: 15.73333019
mean anomaly at epoch: 113.2540°
orbit number at epoch: 31069

The dashed part of the orbit path shows where the satellite is in the earth's shadow,  

DLR